Back to catalog

ATLAS 5 CENTAUR R/B

AliveHEO
NORAD 36869·ROCKET BODY·🇺🇸 United States

Launched Aug 14, 2010 from Cape Canaveral Space Force Station

Loading…

Next Passes (next 24 hours)

TLE

FreshSource: Space-Track

Epoch: Sep 14, 2026, 11:00 UTC

1 36869U 10039B   26257.45890831  .00010451  00000-0  77635-3 0  9997
2 36869  20.1230 240.7812 4433451 105.4301 306.5122  6.64692480294148

Track ATLAS 5 CENTAUR R/B in real time with AllMySat

Download on the App Store